Marion, IN

2:15 AM EDT on July 27, 2017 (GMT -0400)
Marion Municipal

Weather History for KMZZ - April, 2014

Change the Weather History Date:

Saturday, April 12, 2014

  Actual Average (KMIE) Record (KMIE)
Temperature  
Mean Temperature 58 °F -  
Max Temperature 76 °F 60 °F 83 °F (1977)
Min Temperature 41 °F 38 °F 22 °F (1975)
Degree Days  
Heating Degree Days 6    
Growing Degree Days 8 (Base 50)    
Moisture  
Dew Point 43 °F    
Average Humidity 55    
Maximum Humidity 79    
Minimum Humidity 35    
Precipitation  
Precipitation 0.00 in - - ()
Sea Level Pressure  
Sea Level Pressure 29.99 in    
Wind  
Wind Speed 10 mph (South)    
Max Wind Speed 24 mph    
Max Gust Speed 31 mph    
Visibility 10 miles    
Events      
Averages and records for this station are not official NWS values.
T = Trace of Precipitation, MM = Missing Value Source: NWS Daily Summary

Daily Weather History Graph

Daily Weather History Graph

Search for Another Location

Airport or City:

Trip Planner

Search our weather history database for the weather conditions in past years. The results will help you decide how hot, cold, wet, or windy it might be!

Date:

Astronomy

Apr. 12, 2014 Rise Set
Actual Time 7:08 AM EDT 8:18 PM EDT
Civil Twilight 6:40 AM EDT 8:46 PM EDT
Nautical Twilight 6:07 AM EDT 9:20 PM EDT
Astronomical Twilight 5:32 AM EDT 9:55 PM EDT
Moon 5:56 PM EDT (4/12) 5:35 AM EDT (4/12)
Length of Visible Light 14h 06m
Length of Day
13h 09m
Waxing Gibbous, 93% of the Moon is Illuminated
Apr 12
Waxing Gibbous
Apr 15
Full
Apr 22
Last Quarter
Apr 29
New
May 6
First Quarter

Hourly Weather History & Observations

Time (EDT) Temp. Windchill Dew Point Humidity Pressure Visibility Wind Dir Wind Speed Gust Speed Precip Events Conditions
12:15 AM 48.0 °F - 39.0 °F 71% 30.07 in 10.0 mi South 5.8 mph - N/A   Clear
12:35 AM 48.4 °F - 38.1 °F 68% 30.08 in 10.0 mi South 5.8 mph - N/A   Clear
12:55 AM 48.2 °F - 37.9 °F 68% 30.08 in 10.0 mi South 4.6 mph - N/A   Clear
1:15 AM 48.4 °F - 37.0 °F 65% 30.08 in 10.0 mi SSW 5.8 mph - N/A   Clear
1:35 AM 48.6 °F - 36.5 °F 63% 30.08 in 10.0 mi SSW 4.6 mph - N/A   Clear
1:55 AM 48.2 °F - 36.1 °F 63% 30.09 in 10.0 mi SSW 5.8 mph - N/A   Clear
2:15 AM 47.3 °F - 35.8 °F 64% 30.09 in 10.0 mi SSW 5.8 mph - N/A   Clear
2:35 AM 46.9 °F - 35.2 °F 64% 30.10 in 10.0 mi South 4.6 mph - N/A   Clear
2:55 AM 46.9 °F - 35.2 °F 64% 30.09 in 10.0 mi Calm Calm - N/A   Clear
3:15 AM 45.1 °F 43.7 °F 34.9 °F 67% 30.09 in 10.0 mi SSE 3.5 mph - N/A   Clear
3:35 AM 44.8 °F 43.3 °F 34.9 °F 68% 30.09 in 10.0 mi SSE 3.5 mph - N/A   Clear
3:55 AM 45.0 °F 43.5 °F 35.2 °F 69% 30.09 in 10.0 mi SE 3.5 mph - N/A   Clear
4:15 AM 43.9 °F 42.3 °F 35.2 °F 72% 30.09 in 10.0 mi ESE 3.5 mph - N/A   Clear
4:35 AM 43.7 °F 42.1 °F 35.1 °F 72% 30.09 in 10.0 mi SE 3.5 mph - N/A   Clear
4:55 AM 41.7 °F 38.0 °F 35.1 °F 77% 30.10 in 10.0 mi South 5.8 mph - N/A   Clear
5:15 AM 41.2 °F 38.2 °F 35.2 °F 79% 30.11 in 10.0 mi South 4.6 mph - N/A   Clear
5:35 AM 43.3 °F 40.7 °F 34.5 °F 71% 30.11 in 10.0 mi South 4.6 mph - N/A   Clear
5:55 AM 43.9 °F 41.3 °F 33.4 °F 67% 30.10 in 10.0 mi South 4.6 mph - N/A   Clear
6:15 AM 43.7 °F 42.1 °F 33.4 °F 67% 30.10 in 10.0 mi SSE 3.5 mph - N/A   Clear
6:35 AM 43.7 °F 40.3 °F 33.1 °F 66% 30.11 in 10.0 mi SSE 5.8 mph - N/A   Clear
6:55 AM 42.6 °F 39.9 °F 32.7 °F 68% 30.10 in 10.0 mi SSE 4.6 mph - N/A   Clear
7:15 AM 42.4 °F 38.1 °F 32.9 °F 69% 30.11 in 10.0 mi South 6.9 mph - N/A   Clear
7:35 AM 43.3 °F 39.9 °F 32.9 °F 67% 30.11 in 10.0 mi SSE 5.8 mph - N/A   Clear
7:55 AM 44.6 °F 41.4 °F 34.3 °F 67% 30.11 in 10.0 mi SSE 5.8 mph - N/A   Clear
8:15 AM 46.8 °F - 36.1 °F 67% 30.11 in 10.0 mi South 6.9 mph - N/A   Clear
8:35 AM 49.5 °F - 37.0 °F 62% 30.11 in 10.0 mi South 9.2 mph - N/A   Clear
8:55 AM 51.8 °F - 37.9 °F 59% 30.11 in 10.0 mi South 10.4 mph - N/A   Clear
9:15 AM 53.2 °F - 37.8 °F 56% 30.11 in 10.0 mi South 12.7 mph - N/A   Clear
9:35 AM 54.7 °F - 38.3 °F 54% 30.09 in 10.0 mi South 11.5 mph - N/A   Clear
9:55 AM 57.7 °F - 38.8 °F 49% 30.08 in 10.0 mi South 15.0 mph - N/A   Clear
10:15 AM 60.1 °F - 38.7 °F 45% 30.08 in 10.0 mi South 17.3 mph 23.0 mph N/A   Clear
10:35 AM 62.1 °F - 39.4 °F 43% 30.08 in 10.0 mi South 18.4 mph 25.3 mph N/A   Clear
10:55 AM 63.5 °F - 41.0 °F 44% 30.07 in 10.0 mi South 16.1 mph 23.0 mph N/A   Clear
11:15 AM 65.1 °F - 41.2 °F 42% 30.06 in 10.0 mi South 20.7 mph 25.3 mph N/A   Clear
11:35 AM 66.4 °F - 42.1 °F 41% 30.05 in 10.0 mi South 23.0 mph 26.5 mph N/A   Clear
11:55 AM 67.3 °F - 45.5 °F 45% 30.04 in 10.0 mi South 18.4 mph 27.6 mph N/A   Clear
12:15 PM 68.2 °F - 47.5 °F 47% 30.03 in 10.0 mi South 18.4 mph 25.3 mph N/A   Clear
12:35 PM 68.9 °F - 49.1 °F 49% 30.02 in 7.0 mi South 21.9 mph 26.5 mph N/A   Clear
12:55 PM 69.8 °F - 50.2 °F 50% 30.01 in 10.0 mi SSW 19.6 mph 26.5 mph N/A   Clear
1:15 PM 70.3 °F - 50.9 °F 50% 30.01 in 10.0 mi SSW 20.7 mph 26.5 mph N/A   Clear
1:35 PM 71.2 °F - 51.6 °F 50% 29.99 in 10.0 mi South 19.6 mph 26.5 mph N/A   Clear
1:55 PM 72.0 °F - 51.4 °F 48% 29.98 in 10.0 mi SW 19.6 mph 25.3 mph N/A   Clear
2:15 PM 72.7 °F - 50.7 °F 46% 29.96 in 10.0 mi SSW 23.0 mph 27.6 mph N/A   Clear
2:35 PM 73.2 °F - 50.5 °F 45% 29.95 in 10.0 mi SSW 20.7 mph 27.6 mph N/A   Scattered Clouds
2:55 PM 73.8 °F - 49.6 °F 43% 29.94 in 7.0 mi SSW 19.6 mph 27.6 mph N/A   Scattered Clouds
3:15 PM 74.1 °F - 49.5 °F 42% 29.93 in 10.0 mi SSW 20.7 mph 27.6 mph N/A   Scattered Clouds
3:35 PM 74.5 °F - 50.5 °F 43% 29.92 in 10.0 mi SSW 21.9 mph 27.6 mph N/A   Clear
3:55 PM 74.7 °F - 50.9 °F 43% 29.91 in 10.0 mi SSW 20.7 mph 31.1 mph N/A   Scattered Clouds
4:15 PM 75.6 °F - 50.5 °F 41% 29.90 in 7.0 mi SSW 24.2 mph 29.9 mph N/A   Scattered Clouds
4:35 PM 75.7 °F - 49.6 °F 40% 29.89 in 10.0 mi SSW 18.4 mph 26.5 mph N/A   Scattered Clouds
4:55 PM 76.3 °F - 48.6 °F 38% 29.88 in 10.0 mi SSW 23.0 mph 29.9 mph N/A   Scattered Clouds
5:15 PM 76.5 °F - 46.9 °F 35% 29.88 in 10.0 mi SSW 20.7 mph 29.9 mph N/A   Clear
5:35 PM 76.3 °F - 46.9 °F 35% 29.86 in 10.0 mi South 20.7 mph 27.6 mph N/A   Clear
5:55 PM 75.9 °F - 48.4 °F 38% 29.86 in 7.0 mi South 17.3 mph 23.0 mph N/A   Clear
6:15 PM 75.7 °F - 49.1 °F 39% 29.85 in 10.0 mi South 19.6 mph 25.3 mph N/A   Clear
6:35 PM 75.0 °F - 49.6 °F 41% 29.85 in 10.0 mi South 21.9 mph 26.5 mph N/A   Clear
6:55 PM 74.7 °F - 50.0 °F 42% 29.84 in 10.0 mi South 17.3 mph 21.9 mph N/A   Clear
7:15 PM 73.9 °F - 50.2 °F 43% 29.84 in 10.0 mi SSW 20.7 mph 26.5 mph N/A   Clear
7:35 PM 72.5 °F - 50.0 °F 45% 29.84 in 10.0 mi SSW 15.0 mph 24.2 mph N/A   Clear
7:55 PM 71.1 °F - 50.0 °F 47% 29.84 in 7.0 mi SSW 16.1 mph 21.9 mph N/A   Clear
8:15 PM 70.0 °F - 50.2 °F 49% 29.83 in 7.0 mi SSW 13.8 mph - N/A   Scattered Clouds
8:35 PM 68.4 °F - 50.4 °F 53% 29.84 in 10.0 mi SSW 12.7 mph - N/A   Scattered Clouds
8:55 PM 67.5 °F - 50.5 °F 55% 29.84 in 10.0 mi SSW 12.7 mph - N/A   Scattered Clouds
9:15 PM 66.9 °F - 50.4 °F 55% 29.84 in 10.0 mi SSW 13.8 mph - N/A   Clear
9:35 PM 66.0 °F - 50.4 °F 57% 29.84 in 10.0 mi SSW 12.7 mph - N/A   Clear
9:55 PM 65.1 °F - 50.2 °F 58% 29.84 in 10.0 mi SSW 12.7 mph - N/A   Clear
10:15 PM 65.1 °F - 50.2 °F 58% 29.84 in 10.0 mi SSW 16.1 mph - N/A   Clear
10:35 PM 65.3 °F - 50.2 °F 58% 29.83 in 10.0 mi SSW 16.1 mph - N/A   Clear
10:55 PM 65.1 °F - 50.4 °F 59% 29.83 in 10.0 mi SSW 13.8 mph 21.9 mph N/A   Clear
11:15 PM 64.8 °F - 50.4 °F 60% 29.83 in 10.0 mi SSW 11.5 mph - N/A   Clear
11:35 PM 63.9 °F - 50.4 °F 61% 29.82 in 10.0 mi SSW 6.9 mph - N/A   Clear
11:55 PM 61.5 °F - 50.2 °F 66% 29.82 in 10.0 mi SSW 6.9 mph - N/A   Clear